| time (UTC) | temp C | wind direction | speed KPH | gust KPH | rain 1hr cm | rain 24hr cm | rain mn cm | humidity % | barometer mb |
| 20260507124555 | 0 | 72 | 0.0 | 6.4 | 0.00 | 0.00 | 0.00 | 71 | 1011.1 |
| 20260507123047 | -1 | 72 | 0.0 | 0.0 | 0.00 | 0.00 | 0.00 | 75 | 1010.9 |
| 20260507121552 | -2 | 72 | 0.0 | 0.0 | 0.00 | 0.00 | 0.00 | 77 | 1010.8 |
| 20260507120045 | -3 | 72 | 4.8 | 8.0 | 0.00 | 0.00 | 0.00 | 77 | 1010.7 |
| 20260507114541 | -2 | 72 | 0.0 | 3.2 | 0.00 | 0.00 | 0.00 | 82 | 1010.5 |
| 20260507113045 | -2 | 72 | 0.0 | 0.0 | 0.00 | 0.00 | 0.00 | 82 | 1010.4 |
| 20260507111539 | -2 | 72 | 0.0 | 3.2 | 0.00 | 0.00 | 0.00 | 81 | 1010.4 |
| 20260507110049 | -2 | 72 | 0.0 | 4.8 | 0.00 | 0.00 | 0.00 | 81 | 1010.5 |
| 20260507104546 | -3 | 72 | 0.0 | 0.0 | 0.00 | 0.00 | 0.00 | 80 | 1010.6 |
| 20260507103050 | -3 | 72 | 0.0 | 0.0 | 0.00 | 0.00 | 0.00 | 77 | 1010.6 |
| 20260507101533 | -3 | 72 | 0.0 | 0.0 | 0.00 | 0.00 | 0.00 | 76 | 1010.7 |
| 20260507100031 | -3 | 72 | 1.6 | 4.8 | 0.00 | 0.00 | 0.00 | 75 | 1010.8 |
| 20260507094531 | -2 | 72 | 1.6 | 4.8 | 0.00 | 0.00 | 0.00 | 73 | 1010.8 |
| 20260507093028 | -2 | 72 | 1.6 | 3.2 | 0.00 | 0.00 | 0.00 | 72 | 1010.8 |
| 20260507091535 | -2 | 72 | 1.6 | 3.2 | 0.00 | 0.00 | 0.00 | 72 | 1010.8 |
| 20260507090032 | -2 | 72 | 1.6 | 4.8 | 0.00 | 0.00 | 0.00 | 69 | 1010.8 |
| 20260507084538 | -2 | 72 | 0.0 | 0.0 | 0.00 | 0.00 | 0.00 | 67 | 1010.8 |
| 20260507083021 | -1 | 72 | 0.0 | 4.8 | 0.00 | 0.00 | 0.00 | 67 | 1010.8 |
| 20260507081520 | -1 | 73 | 0.0 | 3.2 | 0.00 | 0.00 | 0.00 | 70 | 1010.8 |
| 20260507080019 | -2 | 73 | 1.6 | 3.2 | 0.00 | 0.00 | 0.00 | 69 | 1010.8 |
| 20260507074516 | -2 | 73 | 3.2 | 6.4 | 0.00 | 0.00 | 0.00 | 65 | 1010.9 |
| 20260507073012 | -1 | 73 | 6.4 | 8.0 | 0.00 | 0.00 | 0.00 | 61 | 1010.8 |
| 20260507071512 | -1 | 72 | 6.4 | 8.0 | 0.00 | 0.00 | 0.00 | 64 | 1010.8 |
| 20260507070011 | 0 | 69 | 6.4 | 9.7 | 0.00 | 0.00 | 0.00 | 61 | 1010.9 |
| 20260507064505 | 0 | 105 | 3.2 | 4.8 | 0.00 | 0.00 | 0.00 | 62 | 1010.9 |
| 20260507063005 | 0 | 105 | 1.6 | 6.4 | 0.00 | 0.00 | 0.00 | 60 | 1010.9 |
| 20260507061601 | 0 | 105 | 4.8 | 9.7 | 0.00 | 0.00 | 0.00 | 56 | 1010.9 |
| 20260507054613 | 0 | 105 | 9.7 | 11.3 | 0.00 | 0.00 | 0.00 | 56 | 1010.9 |
| 20260507053105 | 1 | 105 | 8.0 | 11.3 | 0.00 | 0.00 | 0.00 | 53 | 1011.0 |
| 20260507051556 | 1 | 105 | 8.0 | 12.9 | 0.00 | 0.00 | 0.00 | 53 | 1011.0 |
| 20260507050051 | 2 | 105 | 11.3 | 14.5 | 0.00 | 0.00 | 0.00 | 51 | 1011.1 |
| 20260507044553 | 2 | 105 | 11.3 | 14.5 | 0.00 | 0.00 | 0.00 | 49 | 1011.1 |
| 20260507043044 | 2 | 104 | 11.3 | 14.5 | 0.00 | 0.00 | 0.00 | 49 | 1011.1 |
| 20260507041558 | 2 | 103 | 11.3 | 12.9 | 0.00 | 0.00 | 0.00 | 51 | 1011.2 |
| 20260507040044 | 2 | 103 | 11.3 | 12.9 | 0.00 | 0.00 | 0.00 | 50 | 1011.2 |
| 20260507034543 | 2 | 103 | 9.7 | 11.3 | 0.00 | 0.00 | 0.00 | 48 | 1011.2 |
| 20260507033043 | 3 | 103 | 11.3 | 12.9 | 0.00 | 0.00 | 0.00 | 44 | 1011.3 |
| 20260507031542 | 5 | 95 | 11.3 | 14.5 | 0.00 | 0.00 | 0.00 | 41 | 1011.3 |
| 20260507030041 | 3 | 90 | 9.7 | 11.3 | 0.00 | 0.00 | 0.00 | 43 | 1011.2 |
| 20260507024541 | 5 | 90 | 4.8 | 9.7 | 0.00 | 0.00 | 0.00 | 39 | 1011.1 |
| 20260507023040 | 6 | 90 | 9.7 | 12.9 | 0.00 | 0.00 | 0.00 | 37 | 1011.2 |
| 20260507021539 | 6 | 23 | 6.4 | 8.0 | 0.00 | 0.00 | 0.00 | 37 | 1011.1 |
| 20260507020045 | 7 | 21 | 8.0 | 11.3 | 0.00 | 0.00 | 0.00 | 32 | 1011.2 |
| 20260507014547 | 10 | 345 | 4.8 | 6.4 | 0.00 | 0.00 | 0.00 | 29 | 1011.2 |
| 20260507013044 | 10 | 345 | 6.4 | 12.9 | 0.00 | 0.00 | 0.00 | 27 | 1011.3 |
| 20260507011542 | 10 | 329 | 6.4 | 14.5 | 0.00 | 0.00 | 0.00 | 27 | 1011.3 |
| 20260507010043 | 10 | 327 | 12.9 | 20.9 | 0.00 | 0.00 | 0.00 | 26 | 1011.4 |
| 20260507004533 | 11 | 325 | 11.3 | 20.9 | 0.00 | 0.00 | 0.00 | 26 | 1011.5 |
| 20260507003030 | 11 | 315 | 14.5 | 20.9 | 0.00 | 0.00 | 0.00 | 26 | 1011.8 |
| 20260507001548 | 11 | 330 | 16.1 | 24.1 | 0.00 | 0.00 | 0.00 | 26 | 1011.9 |
| 20260507000032 | 11 | 306 | 12.9 | 24.1 | 0.00 | 0.00 | 0.00 | 27 | 1012.1 |
| 20260506234526 | 11 | 355 | 19.3 | 24.1 | 0.00 | 0.00 | 0.00 | 28 | 1012.2 |
| 20260506233025 | 11 | 331 | 11.3 | 30.6 | 0.00 | 0.00 | 0.00 | 28 | 1012.2 |
| 20260506231523 | 11 | 317 | 14.5 | 24.1 | 0.00 | 0.00 | 0.00 | 28 | 1012.3 |
| 20260506230022 | 11 | 328 | 14.5 | 25.7 | 0.00 | 0.00 | 0.00 | 29 | 1012.5 |
| 20260506224519 | 11 | 275 | 16.1 | 27.4 | 0.00 | 0.00 | 0.00 | 30 | 1012.6 |
| 20260506223016 | 11 | 324 | 20.9 | 29.0 | 0.00 | 0.00 | 0.00 | 30 | 1012.8 |
| 20260506221513 | 10 | 275 | 14.5 | 25.7 | 0.00 | 0.00 | 0.00 | 31 | 1013.0 |
| 20260506220011 | 11 | 340 | 20.9 | 30.6 | 0.00 | 0.00 | 0.00 | 32 | 1013.3 |
| 20260506214509 | 10 | 286 | 16.1 | 33.8 | 0.00 | 0.00 | 0.00 | 32 | 1013.6 |
| 20260506213006 | 10 | 292 | 19.3 | 32.2 | 0.00 | 0.00 | 0.00 | 33 | 1013.9 |
| 20260506211505 | 10 | 294 | 17.7 | 33.8 | 0.00 | 0.00 | 0.00 | 33 | 1014.1 |
| 20260506210004 | 10 | 329 | 24.1 | 37.0 | 0.00 | 0.00 | 0.00 | 33 | 1014.2 |
| 20260506204601 | 10 | 315 | 14.5 | 30.6 | 0.00 | 0.00 | 0.00 | 34 | 1014.3 |
| 20260506203057 | 10 | 279 | 20.9 | 37.0 | 0.00 | 0.00 | 0.00 | 33 | 1014.4 |
| 20260506201556 | 10 | 282 | 19.3 | 33.8 | 0.00 | 0.00 | 0.00 | 35 | 1014.8 |
| 20260506200054 | 9 | 313 | 20.9 | 38.6 | 0.00 | 0.00 | 0.00 | 34 | 1015.0 |
| 20260506194550 | 9 | 299 | 19.3 | 33.8 | 0.00 | 0.00 | 0.00 | 35 | 1015.0 |
| 20260506193052 | 8 | 302 | 17.7 | 35.4 | 0.00 | 0.00 | 0.00 | 37 | 1015.3 |
| 20260506191545 | 8 | 309 | 17.7 | 37.0 | 0.00 | 0.00 | 0.00 | 38 | 1015.5 |
| 20260506190043 | 8 | 296 | 25.7 | 35.4 | 0.00 | 0.00 | 0.00 | 39 | 1015.6 |
| 20260506184541 | 8 | 301 | 24.1 | 40.2 | 0.00 | 0.00 | 0.00 | 40 | 1015.7 |
| 20260506183038 | 7 | 314 | 20.9 | 38.6 | 0.00 | 0.00 | 0.00 | 41 | 1016.1 |
| 20260506181543 | 7 | 347 | 9.7 | 37.0 | 0.00 | 0.00 | 0.00 | 43 | 1016.4 |
| 20260506180032 | 7 | 300 | 16.1 | 33.8 | 0.00 | 0.00 | 0.00 | 44 | 1016.8 |
| 20260506174534 | 7 | 323 | 19.3 | 37.0 | 0.00 | 0.00 | 0.00 | 44 | 1016.8 |
| 20260506173047 | 6 | 288 | 14.5 | 30.6 | 0.00 | 0.00 | 0.00 | 45 | 1017.1 |
| 20260506171528 | 6 | 284 | 17.7 | 30.6 | 0.00 | 0.00 | 0.00 | 47 | 1017.2 |
| 20260506170026 | 6 | 327 | 22.5 | 30.6 | 0.00 | 0.00 | 0.00 | 46 | 1017.3 |
| 20260506164524 | 6 | 294 | 19.3 | 32.2 | 0.00 | 0.00 | 0.00 | 45 | 1017.5 |
| 20260506163027 | 5 | 311 | 12.9 | 27.4 | 0.00 | 0.00 | 0.00 | 47 | 1017.7 |
| 20260506161520 | 5 | 279 | 14.5 | 30.6 | 0.00 | 0.00 | 0.00 | 48 | 1017.7 |
| 20260506160014 | 5 | 335 | 19.3 | 30.6 | 0.00 | 0.00 | 0.00 | 49 | 1017.6 |
| 20260506154513 | 5 | 297 | 24.1 | 30.6 | 0.00 | 0.00 | 0.00 | 48 | 1017.8 |
| 20260506153010 | 5 | 294 | 25.7 | 40.2 | 0.00 | 0.00 | 0.00 | 50 | 1017.9 |
| 20260506151509 | 4 | 327 | 24.1 | 40.2 | 0.00 | 0.00 | 0.00 | 52 | 1017.9 |
| 20260506150013 | 4 | 313 | 29.0 | 37.0 | 0.00 | 0.00 | 0.00 | 52 | 1018.0 |
| 20260506144505 | 3 | 293 | 14.5 | 25.7 | 0.00 | 0.00 | 0.00 | 57 | 1018.1 |
| 20260506143002 | 3 | 317 | 19.3 | 25.7 | 0.00 | 0.00 | 0.00 | 58 | 1018.2 |
| 20260506141603 | 3 | 309 | 19.3 | 29.0 | 0.00 | 0.00 | 0.00 | 60 | 1018.3 |
| 20260506140056 | 2 | 298 | 17.7 | 24.1 | 0.00 | 0.00 | 0.00 | 64 | 1018.3 |
| 20260506134552 | 2 | 323 | 14.5 | 19.3 | 0.00 | 0.00 | 0.00 | 70 | 1018.3 |
| 20260506133101 | 1 | 293 | 12.9 | 17.7 | 0.00 | 0.00 | 0.00 | 74 | 1018.2 |
| 20260506131543 | 0 | 288 | 8.0 | 12.9 | 0.00 | 0.00 | 0.00 | 80 | 1018.2 |
| 20260506130040 | -1 | 310 | 4.8 | 8.0 | 0.00 | 0.00 | 0.00 | 81 | 1018.2 |